Location: Ste-F�licit�
(48.8999°N, 67.3360°W)
Time: 05:53:41
(UTC-05:00)

DELFI C3 - Pass Details

Date: 23 October 2020
Orbit: 532 x 551 km, 97.4° (Epoch: 28 November)

Event Time Altitude Azimuth Distance (km) Brightness Sun altitude
Exits shadow 18:50:12 13° 37° (NE) 1,674 ? -14.9°
Drops below altitude 10° 18:51:02 10° 26° (NNE) 1,843 ? -15.0°
Sets 18:53:55 0° 3° (N) 2,743 ? -15.5°
